TimeAKST,TemperatureF,Dew PointF,Humidity,Sea Level PressureIn,VisibilityMPH,Wind Direction,Wind SpeedMPH,Gust SpeedMPH,PrecipitationIn,Events,Conditions,WindDirDegrees,DateUTC
12:53 AM,14.0,-2.9,47,29.84,9.0,NE,29.9,44.9,0.00,Snow,Light Snow,50,2012-12-07 09:53:00
1:53 AM,15.1,-2.0,47,29.85,9.0,NE,24.2,49.5,0.00,Snow,Light Snow,40,2012-12-07 10:53:00
3:53 AM,15.1,-2.9,45,29.86,9.0,NE,32.2,50.6,0.00,Snow,Light Snow,40,2012-12-07 12:53:00
4:53 AM,15.1,-2.9,45,29.87,10.0,NE,32.2,50.6,0.00,Snow,Light Snow,50,2012-12-07 13:53:00
5:53 AM,15.1,-2.9,45,29.90,10.0,NE,27.6,40.3,0.00,,Overcast,50,2012-12-07 14:53:00
6:53 AM,16.0,-0.0,49,29.91,10.0,NE,28.8,40.3,0.00,,Overcast,50,2012-12-07 15:53:00
7:53 AM,15.1,-2.9,45,29.95,10.0,ENE,23.0,39.1,0.00,,Overcast,60,2012-12-07 16:53:00
8:53 AM,14.0,-4.0,45,29.98,10.0,NE,32.2,47.2,0.00,,Overcast,50,2012-12-07 17:53:00
9:53 AM,15.1,-2.9,45,30.01,10.0,NE,20.7,46.0,0.00,,Overcast,40,2012-12-07 18:53:00
10:53 AM,14.0,-5.1,43,30.03,10.0,NE,25.3,40.3,0.00,,Overcast,50,2012-12-07 19:53:00
11:53 AM,14.0,-5.1,43,30.04,10.0,NE,25.3,39.1,0.00,,Overcast,40,2012-12-07 20:53:00
12:53 PM,14.0,-6.0,41,30.06,10.0,NE,27.6,35.7,N/A,,Overcast,50,2012-12-07 21:53:00
1:53 PM,14.0,-6.0,41,30.07,10.0,NE,28.8,41.4,N/A,,Clear,50,2012-12-07 22:53:00
2:53 PM,12.9,-5.1,45,30.10,10.0,NE,27.6,36.8,N/A,,Mostly Cloudy,40,2012-12-07 23:53:00
3:53 PM,12.9,-6.0,43,30.11,10.0,NE,23.0,38.0,N/A,,Overcast,50,2012-12-08 00:53:00
4:53 PM,12.9,-6.0,43,30.12,10.0,NE,29.9,36.8,N/A,,Overcast,50,2012-12-08 01:53:00
5:53 PM,12.9,-5.1,45,30.14,10.0,NE,20.7,31.1,N/A,,Overcast,50,2012-12-08 02:53:00
6:53 PM,12.0,-6.0,44,30.15,10.0,NE,21.9,33.4,N/A,,Overcast,50,2012-12-08 03:53:00
7:53 PM,12.0,-6.0,44,30.15,10.0,NE,26.5,38.0,N/A,,Overcast,50,2012-12-08 04:53:00
8:53 PM,12.9,-4.0,47,30.17,10.0,NE,20.7,29.9,N/A,,Overcast,50,2012-12-08 05:53:00
9:53 PM,12.0,-4.0,49,30.18,10.0,NE,17.3,26.5,N/A,,Overcast,50,2012-12-08 06:53:00
10:53 PM,12.0,-5.1,46,30.19,10.0,NE,18.4,27.6,N/A,,Overcast,40,2012-12-08 07:53:00
11:53 PM,12.0,-5.1,46,30.20,10.0,NE,17.3,25.3,N/A,,Overcast,50,2012-12-08 08:53:00